sat.trackr.live / text

‹ back to catalog

STARLINK-4531

NORAD 53425 · 2022-097AP

PAYLOAD ACTIVE UNKNOWN

§ Identity

Operator
Country
US
Launch date
2022-08-10
Launch site
AFETR
Launch vehicle
Mass (kg)
RCS (m²)

Purposes: comms

External: N2YO · Heavens-Above · Gunter

§ Orbital elements

Epoch: 2026-05-25T02:38:40.028928Z

Period
95.44 min
Inclination
53.2146°
Eccentricity
0.0001288
Mean motion
15.08838652 rev/d
Perigee alt
538.9 km
Apogee alt
540.6 km
Semi-major
6,917.9 km
B*
4.6711e-5
RAAN
131.0562°
Arg perigee
56.4281°
Mean anomaly
303.6834°
Rev number
21,015

§ Raw data

STARLINK-45311 53425U 22097AP  26145.11018552  .00000456  00000+0  46711-4 0  99972 53425  53.2146 131.0562 0001288  56.4281 303.6834 15.08838652210157

JSON: /api/v1/satellites/53425 · /tle

For live sub-satellite position, see the globe view (requires WebGL).

§ Visibility from observer

Set your observer location to see the next 7 days of passes ≥ 10°. The values pass through the URL so the page stays shareable.

No JS? Fill the form by hand. The geolocation button needs JavaScript.